This is the latest recevied weather packets stored in our database for station/object NR5ON-13. If no packets are shown the sender has not sent any weather packets the latest 1 day(s).
| Time | Temp. | Humidity | Pressure | Rain* | Wind** | Luminosity | Snow |
|---|---|---|---|---|---|---|---|
| 1778023720 | 13.33° C | 46% | 1011.6 hPa | 0 mm | 1.79 m/s, 207° | - | - |
| 1778023410 | 13.33° C | 46% | 1011.6 hPa | 0 mm | 2.24 m/s, 181° | - | - |
| 1778023114 | 13.33° C | 46% | 1011.7 hPa | 0 mm | 3.13 m/s, 200° | - | - |
| 1778022819 | 13.89° C | 44% | 1011.7 hPa | 0 mm | 4.02 m/s, 211° | - | - |
| 1778022523 | 13.89° C | 44% | 1011.6 hPa | 0 mm | 3.13 m/s, 170° | - | - |
| 1778022208 | 13.89° C | 44% | 1011.4 hPa | 0 mm | 3.58 m/s, 180° | - | - |
| 1778021913 | 13.89° C | 45% | 1011.4 hPa | 0 mm | 2.24 m/s, 185° | - | - |
| 1778021619 | 13.89° C | 45% | 1011.6 hPa | 0 mm | 3.13 m/s, 185° | - | - |
| 1778021304 | 13.89° C | 45% | 1011.4 hPa | 0 mm | 3.13 m/s, 217° | - | - |
| 1778021010 | 14.44° C | 44% | 1011.4 hPa | 0 mm | 2.68 m/s, 200° | - | - |
| 1778020715 | 14.44° C | 44% | 1011.5 hPa | 0 mm | 1.79 m/s, 172° | - | - |
| 1778020403 | 14.44° C | 43% | 1011.5 hPa | 0 mm | 3.13 m/s, 204° | - | - |
| 1778020112 | 14.44° C | 43% | 1011.5 hPa | 0 mm | 3.13 m/s, 187° | - | - |
| 1778019816 | 15° C | 42% | 1011.6 hPa | 0 mm | 2.68 m/s, 179° | - | - |
| 1778019522 | 15.56° C | 40% | 1011.6 hPa | 0 mm | 1.79 m/s, 205° | - | - |
| 1778019207 | 15.56° C | 41% | 1011.5 hPa | 0 mm | 0.89 m/s, 254° | - | - |
| 1778018911 | 15.56° C | 40% | 1011.4 hPa | 0 mm | 3.13 m/s, 207° | - | - |
| 1778018616 | 15.56° C | 40% | 1011.5 hPa | 0 mm | 1.79 m/s, 201° | - | - |
| 1778018321 | 15.56° C | 41% | 1011.5 hPa | 0 mm | 1.34 m/s, 269° | - | - |
| 1778018007 | 15.56° C | 40% | 1011.6 hPa | 0 mm | 2.24 m/s, 224° | - | - |
| 1778017712 | 16.11° C | 40% | 1011.6 hPa | 0 mm | 1.79 m/s, 203° | - | - |
| 1778017422 | 16.11° C | 41% | 1011.6 hPa | 0 mm | 0.45 m/s, 231° | - | - |
| 1778017107 | 16.11° C | 41% | 1011.9 hPa | 0 mm | 2.24 m/s, 200° | - | - |
| 1778016813 | 15.56° C | 42% | 1011.9 hPa | 0 mm | 1.34 m/s, 155° | - | - |
| 1778016518 | 15.56° C | 41% | 1012.2 hPa | 0 mm | 3.13 m/s, 216° | - | - |
* Rain latest hour (hover to see other rain measurements)
** Current wind speed in m/s (hover to see current wind gust speed)